#timestamp,LO_Frequency,Hit 
1500418815.9,286047074.8,N
1500418835.7,286047073.4,N
1500418855.6,286047075.7,N
1500418875.4,286047073.8,N
1500418895.2,286047075.1,N
1500418915.1,286047074.7,N
1500418916.0,286047074.7,N
1500418935.8,286047074.1,N
1500418955.6,286047075.9,N
1500418975.5,286047073.4,N
1500418995.3,286047073.6,N
1500419015.1,286047074.3,N
1500419035.9,286047073.7,N
1500419055.7,286047076.2,N
1500419075.5,286047074.3,N
1500419095.3,286047073.9,N
1500419115.2,286047074.6,N
1500419135.0,286047073.4,N
1500419135.9,286047073.4,N
1500419155.7,286047079.5,N
1500419175.6,286047077.3,N
1500419195.4,286047077.2,N
1500419215.2,286047079.3,N
1500419235.1,286047080.8,N
1500419236.0,286047080.8,N
1500419255.8,286047079.0,N
1500419275.6,286047079.0,N
1500419295.5,286047079.5,N
1500419315.3,286047079.4,N
1500419335.1,286047080.3,N
1500419355.9,286047081.8,N
1500419375.7,286047083.9,N
1500419395.5,286047084.3,N
1500419415.4,286047084.2,N
1500419435.2,286047082.9,N
1500419455.0,286047083.7,N
1500419455.9,286047083.7,N
1500419475.8,286047083.5,N
1500419495.6,286047083.6,N
1500419515.4,286047082.3,N
1500419535.3,286047082.5,N
1500419555.1,286047081.0,N
1500419556.0,286047081.0,N
1500419575.8,286047078.2,N
1500419595.7,286047078.5,N
1500419615.5,286047081.0,N
1500419635.3,286047078.8,N
1500419655.2,286047080.4,N
1500419675.9,286047082.3,N
1500419695.7,286047082.2,N
1500419715.6,286047081.7,N
1500419735.4,286047083.6,N
1500419755.2,286047083.9,N
1500419775.1,286047082.0,N
1500419776.0,286047082.0,N
1500419795.8,286047082.6,N
1500419815.6,286047084.1,N
1500419835.4,286047081.7,N
1500419855.3,286047084.3,N
1500419875.1,286047084.3,N
1500419895.8,286047083.6,N
1500419915.7,286047084.4,N
1500419935.5,286047082.8,N
1500419955.3,286047084.3,N
1500419975.2,286047084.4,N
1500419995.0,286047081.5,N
1500419995.9,286047081.5,N
1500420015.7,286047083.2,N
1500420035.6,286047084.8,N
1500420055.4,286047084.5,N
1500420075.2,286047086.6,N
1500420095.1,286047086.1,N
1500420096.0,286047086.1,N
1500420115.8,286047087.4,N
1500420135.6,286047087.3,N
1500420155.5,286047087.5,N
1500420175.3,286047087.2,N
1500420195.1,286047086.5,N
1500420215.9,286047088.9,N
1500420235.7,286047086.3,N
1500420255.5,286047088.6,N
1500420275.4,286047088.6,N
1500420295.2,286047088.9,N
1500420315.0,286047086.1,N
1500420315.9,286047086.1,N
1500420335.8,286047086.8,N
1500420355.6,286047087.3,N
1500420375.4,286047084.6,N
1500420395.3,286047085.7,N
1500420415.1,286047085.0,N
1500420416.0,286047085.0,N
1500420435.8,286047086.4,N
1500420455.7,286047089.0,N
1500420475.5,286047090.8,N
1500420495.3,286047086.6,N
1500420515.2,286047086.6,N
1500420535.9,286047086.4,N
1500420555.7,286047084.5,N
1500420575.6,286047088.5,N
1500420595.4,286047090.7,N
1500420615.2,286047089.6,N
1500420635.1,286047090.6,N
1500420636.0,286047090.6,N
1500420655.8,286047089.0,N
1500420675.6,286047087.8,N
1500420695.4,286047090.6,N
1500420715.3,286047087.7,N
1500420735.1,286047090.4,N
1500420755.8,286047090.6,N
1500420775.7,286047089.4,N
1500420795.5,286047091.8,N
1500420815.3,286047089.4,N
1500420835.2,286047089.8,N
1500420855.0,286047089.9,N
1500420855.9,286047089.9,N
1500420875.7,286047092.4,N
1500420895.6,286047091.9,N
1500420915.4,286047091.7,N
1500420935.2,286047092.9,N
1500420955.1,286047093.3,N
1500420956.0,286047093.3,N
1500420975.8,286047091.7,N
1500420995.6,286047091.3,N
1500421015.5,286047093.3,N
1500421035.3,286047095.4,N
1500421055.1,286047095.0,N
1500421075.9,286047094.8,N
1500421095.7,286047094.7,N
1500421115.5,286047094.2,N
1500421135.4,286047096.0,N
1500421155.2,286047097.9,N
1500421175.0,286047099.1,N
1500421175.9,286047099.1,N
1500421195.8,286047099.5,N
1500421215.6,286047099.8,N
1500421235.4,286047100.0,N
1500421255.3,286047099.0,N
1500421275.1,286047103.2,N
1500421276.0,286047103.2,N
1500421295.8,286047102.3,N
1500421315.7,286047102.6,N
1500421335.5,286047103.3,N
1500421355.3,286047103.0,N
1500421375.1,286047103.2,N
1500421395.9,286047100.9,N
1500421415.7,286047101.4,N
1500421435.5,286047099.5,N
1500421455.4,286047099.1,N
1500421475.2,286047103.4,N
1500421495.0,286047104.6,N
1500421495.9,286047104.6,N
1500421515.8,286047105.4,N
1500421535.6,286047105.0,N
1500421555.4,286047108.1,N
1500421575.3,286047105.3,N
1500421595.1,286047106.8,N
1500421615.8,286047103.9,N
1500421635.7,286047104.6,N
1500421655.5,286047104.5,N
1500421675.3,286047106.1,N
1500421695.2,286047105.9,N
1500421715.9,286047103.7,N
1500421735.7,286047102.9,N
1500421755.6,286047103.7,N
1500421775.4,286047104.6,N
1500421795.2,286047106.3,N
1500421815.1,286047104.1,N
1500421816.0,286047104.1,N
1500421835.8,286047104.1,N
1500421855.6,286047106.6,N
1500421875.5,286047104.6,N
1500421895.3,286047106.4,N
1500421915.1,286047104.2,N
1500421935.9,286047106.1,N
1500421955.7,286047103.8,N
1500421975.5,286047102.2,N
1500421995.4,286047104.6,N
1500422015.2,286047102.4,N
1500422035.0,286047100.6,N
1500422035.9,286047100.6,N
1500422055.8,286047104.6,N
1500422075.6,286047105.4,N
1500422095.4,286047108.2,N
1500422115.3,286047107.5,N
1500422135.1,286047105.3,N
1500422136.0,286047105.3,N
1500422155.8,286047107.2,N
1500422175.6,286047106.2,N
1500422195.5,286047103.7,N
1500422215.3,286047105.8,N
1500422235.1,286047104.0,N
1500422255.9,286047106.6,N
1500422275.7,286047104.4,N
1500422295.5,286047104.5,N
1500422315.4,286047104.1,N
1500422335.2,286047106.3,N
1500422355.0,286047104.3,N
1500422355.9,286047104.3,N
1500422375.8,286047104.1,N
1500422395.6,286047106.5,N
